GLO9607 SBJP-SBGR

Flight info

Callsign GLO9607
Flight time 3h 11m
Altitude 36000
Route UDOSA UZ21 VUNOX/N0337F220
Aircraft B738/M-SDFGIKLORWXY/LB1

Departure

Time 2026-05-06 02:01
Airport Presidente Castro Pinto International Airport (SBJP)

Arrival

Time 2026-05-06 05:13
Airport São Paulo/Guarulhos–Governor André Franco Montoro International Airport (SBGR)
Time Latitude Longitude Altitude Speed Heading
2026-05-06 01:42 -7.14350 -34.95291 219 ft 0 kts 114°
2026-05-06 01:53 -7.14355 -34.95280 219 ft 3 kts 116°
2026-05-06 01:53 -7.14377 -34.95264 219 ft 3 kts 164°
2026-05-06 01:53 -7.14400 -34.95266 219 ft 1 kts 203°
2026-05-06 01:54 -7.14402 -34.95267 219 ft 0 kts 202°
2026-05-06 01:56 -7.14411 -34.95271 219 ft 4 kts 202°
2026-05-06 01:56 -7.14468 -34.95295 219 ft 12 kts 202°
2026-05-06 01:57 -7.14578 -34.95333 219 ft 20 kts 178°
2026-05-06 01:57 -7.14697 -34.95232 219 ft 24 kts 135°
2026-05-06 01:57 -7.14831 -34.95104 219 ft 28 kts 136°
2026-05-06 01:57 -7.14978 -34.94952 219 ft 31 kts 133°
2026-05-06 01:58 -7.15141 -34.94787 219 ft 33 kts 136°
2026-05-06 01:58 -7.15292 -34.94640 219 ft 28 kts 135°
2026-05-06 01:58 -7.15431 -34.94502 219 ft 27 kts 135°
2026-05-06 01:58 -7.15553 -34.94381 219 ft 15 kts 136°
2026-05-06 01:59 -7.15595 -34.94347 219 ft 6 kts 156°
2026-05-06 01:59 -7.15632 -34.94337 219 ft 4 kts 168°
2026-05-06 01:59 -7.15660 -34.94328 219 ft 4 kts 149°
2026-05-06 01:59 -7.15673 -34.94301 219 ft 5 kts 86°
2026-05-06 02:00 -7.15644 -34.94290 219 ft 6 kts 317°
2026-05-06 02:00 -7.15629 -34.94305 219 ft 1 kts 314°
2026-05-06 02:00 -7.15548 -34.94387 219 ft 47 kts 315°
2026-05-06 02:00 -7.15130 -34.94801 219 ft 117 kts 315°
2026-05-06 02:01 -7.14408 -34.95519 219 ft 175 kts 315°
2026-05-06 02:01 -7.13453 -34.96458 603 ft 193 kts 316°
2026-05-06 02:01 -7.12485 -34.97416 1238 ft 203 kts 311°
2026-05-06 02:01 -7.11579 -34.98595 1637 ft 220 kts 302°
2026-05-06 02:02 -7.11040 -35.00041 2025 ft 231 kts 267°
2026-05-06 02:02 -7.11477 -35.01585 2445 ft 233 kts 226°
2026-05-06 02:02 -7.12749 -35.02570 2928 ft 235 kts 196°
2026-05-06 02:02 -7.14341 -35.02977 3435 ft 243 kts 181°
2026-05-06 02:03 -7.16045 -35.02883 4051 ft 247 kts 163°
2026-05-06 02:03 -7.17700 -35.02366 4748 ft 252 kts 162°
2026-05-06 02:03 -7.19447 -35.02012 5458 ft 259 kts 172°
2026-05-06 02:03 -7.21261 -35.02092 6138 ft 270 kts 191°
2026-05-06 02:04 -7.22956 -35.02996 6794 ft 284 kts 218°
2026-05-06 02:04 -7.24330 -35.04479 7473 ft 292 kts 225°
2026-05-06 02:04 -7.25717 -35.05960 8085 ft 295 kts 219°
2026-05-06 02:04 -7.27325 -35.07269 8712 ft 299 kts 212°
2026-05-06 02:05 -7.29079 -35.08425 9338 ft 302 kts 208°
2026-05-06 02:05 -7.30901 -35.09508 9946 ft 307 kts 206°
2026-05-06 02:05 -7.32767 -35.10587 10472 ft 315 kts 206°
2026-05-06 02:05 -7.34723 -35.11721 10826 ft 330 kts 207°
2026-05-06 02:06 -7.36754 -35.12912 11152 ft 345 kts 207°
2026-05-06 02:06 -7.38861 -35.14161 11714 ft 350 kts 208°
2026-05-06 02:06 -7.40953 -35.15409 12299 ft 354 kts 208°
2026-05-06 02:06 -7.43086 -35.16685 12917 ft 357 kts 208°
2026-05-06 02:07 -7.45240 -35.17970 13521 ft 360 kts 208°
2026-05-06 02:07 -7.47382 -35.19250 14134 ft 362 kts 209°
2026-05-06 02:07 -7.49565 -35.20559 14739 ft 364 kts 209°
2026-05-06 02:07 -7.51733 -35.21860 15350 ft 365 kts 209°
2026-05-06 02:08 -7.53923 -35.23174 15915 ft 367 kts 209°
2026-05-06 02:08 -7.56139 -35.24500 16472 ft 369 kts 209°
2026-05-06 02:08 -7.58348 -35.25820 17018 ft 371 kts 209°
2026-05-06 02:08 -7.60570 -35.27147 17558 ft 373 kts 210°
2026-05-06 02:09 -7.62819 -35.28487 18023 ft 377 kts 210°
2026-05-06 02:09 -7.65109 -35.29851 18483 ft 381 kts 210°
2026-05-06 02:09 -7.67385 -35.31206 18941 ft 384 kts 210°
2026-05-06 02:09 -7.69712 -35.32595 19445 ft 386 kts 210°
2026-05-06 02:10 -7.72035 -35.33984 19872 ft 390 kts 210°
2026-05-06 02:10 -7.74383 -35.35389 20355 ft 392 kts 210°
2026-05-06 02:10 -7.76712 -35.36780 20790 ft 395 kts 210°
2026-05-06 02:10 -7.79089 -35.38200 21232 ft 398 kts 210°
2026-05-06 02:11 -7.81483 -35.39630 21658 ft 401 kts 210°
2026-05-06 02:11 -7.83903 -35.41073 22102 ft 403 kts 210°
2026-05-06 02:11 -7.86351 -35.42533 22481 ft 407 kts 211°
2026-05-06 02:11 -7.88785 -35.43983 22887 ft 409 kts 211°
2026-05-06 02:12 -7.91243 -35.45446 23328 ft 410 kts 211°
2026-05-06 02:12 -7.93713 -35.46917 23721 ft 412 kts 211°
2026-05-06 02:12 -7.96198 -35.48397 24140 ft 414 kts 211°
2026-05-06 02:12 -7.98669 -35.49871 24512 ft 416 kts 212°
2026-05-06 02:13 -8.01193 -35.51377 24899 ft 418 kts 212°
2026-05-06 02:13 -8.03708 -35.52876 25240 ft 421 kts 212°
2026-05-06 02:13 -8.06217 -35.54373 25627 ft 422 kts 212°
2026-05-06 02:13 -8.08761 -35.55891 25966 ft 425 kts 212°
2026-05-06 02:14 -8.11317 -35.57416 26329 ft 426 kts 212°
2026-05-06 02:14 -8.13909 -35.58962 26660 ft 429 kts 212°
2026-05-06 02:14 -8.16478 -35.60496 26971 ft 431 kts 212°
2026-05-06 02:14 -8.19066 -35.62041 27299 ft 432 kts 212°
2026-05-06 02:15 -8.21697 -35.63611 27575 ft 435 kts 213°
2026-05-06 02:15 -8.24292 -35.65159 27903 ft 437 kts 213°
2026-05-06 02:15 -8.26929 -35.66732 28209 ft 439 kts 213°
2026-05-06 02:15 -8.29579 -35.68314 28486 ft 441 kts 213°
2026-05-06 02:16 -8.32265 -35.69918 28813 ft 442 kts 213°
2026-05-06 02:16 -8.34893 -35.71489 29091 ft 445 kts 213°
2026-05-06 02:16 -8.37581 -35.73096 29438 ft 445 kts 213°
2026-05-06 02:16 -8.40245 -35.74690 29728 ft 447 kts 213°
2026-05-06 02:17 -8.42936 -35.76301 30025 ft 448 kts 213°
2026-05-06 02:17 -8.45610 -35.77902 30360 ft 449 kts 213°
2026-05-06 02:17 -8.48302 -35.79513 30624 ft 451 kts 213°
2026-05-06 02:17 -8.51008 -35.81132 30905 ft 452 kts 213°
2026-05-06 02:18 -8.53744 -35.82772 31179 ft 453 kts 214°
2026-05-06 02:18 -8.56430 -35.84381 31426 ft 455 kts 214°
2026-05-06 02:18 -8.59184 -35.86030 31715 ft 456 kts 214°
2026-05-06 02:18 -8.61909 -35.87663 31968 ft 457 kts 214°
2026-05-06 02:19 -8.64663 -35.89312 32226 ft 458 kts 214°
2026-05-06 02:19 -8.67409 -35.90957 32529 ft 458 kts 214°
2026-05-06 02:19 -8.70152 -35.92599 32901 ft 456 kts 214°
2026-05-06 02:19 -8.72869 -35.94225 33391 ft 453 kts 214°
2026-05-06 02:20 -8.78236 -35.97438 34287 ft 446 kts 214°
2026-05-06 02:20 -8.80933 -35.99054 34610 ft 445 kts 214°
2026-05-06 02:20 -8.83564 -36.00633 34927 ft 444 kts 214°
2026-05-06 02:21 -8.86228 -36.02232 35267 ft 442 kts 214°
2026-05-06 02:21 -8.88863 -36.03813 35553 ft 441 kts 214°
2026-05-06 02:21 -8.91515 -36.05405 35865 ft 439 kts 214°
2026-05-06 02:21 -8.94158 -36.06990 36108 ft 438 kts 214°
2026-05-06 02:22 -8.96801 -36.08576 36101 ft 438 kts 214°
2026-05-06 02:22 -9.02003 -36.11696 36098 ft 432 kts 214°
2026-05-06 02:23 -9.07156 -36.14887 36095 ft 434 kts 217°
2026-05-06 02:23 -9.12162 -36.18377 36092 ft 432 kts 219°
2026-05-06 02:24 -9.17082 -36.21918 36091 ft 432 kts 219°
2026-05-06 02:24 -9.22001 -36.25448 36092 ft 433 kts 219°
2026-05-06 02:25 -9.26930 -36.28963 36091 ft 433 kts 219°
2026-05-06 02:25 -9.31877 -36.32476 36087 ft 433 kts 219°
2026-05-06 02:26 -9.36816 -36.35974 36087 ft 433 kts 219°
2026-05-06 02:26 -9.41754 -36.39472 36085 ft 435 kts 219°
2026-05-06 02:27 -9.46723 -36.42992 36084 ft 434 kts 219°
2026-05-06 02:27 -9.51694 -36.46514 36085 ft 434 kts 219°
2026-05-06 02:28 -9.56633 -36.50016 36083 ft 434 kts 219°
2026-05-06 02:28 -9.61625 -36.53557 36081 ft 435 kts 219°
2026-05-06 02:29 -9.66584 -36.57075 36078 ft 435 kts 219°
2026-05-06 02:29 -9.71540 -36.60595 36076 ft 434 kts 219°
2026-05-06 02:30 -9.76484 -36.64122 36076 ft 436 kts 219°
2026-05-06 02:30 -9.81469 -36.67680 36075 ft 435 kts 219°
2026-05-06 02:31 -9.86433 -36.71223 36073 ft 435 kts 219°
2026-05-06 02:31 -9.91376 -36.74751 36067 ft 436 kts 219°
2026-05-06 02:32 -9.96352 -36.78306 36062 ft 436 kts 219°
2026-05-06 02:32 -10.01311 -36.81852 36055 ft 436 kts 219°
2026-05-06 02:33 -10.06285 -36.85413 36058 ft 437 kts 219°
2026-05-06 02:33 -10.07944 -36.86600 36055 ft 437 kts 219°
2026-05-06 02:34 -10.16214 -36.92520 36057 ft 434 kts 219°
2026-05-06 02:34 -10.21145 -36.96053 36055 ft 435 kts 219°
2026-05-06 02:35 -10.26100 -36.99605 36057 ft 435 kts 219°
2026-05-06 02:35 -10.31041 -37.03147 36058 ft 434 kts 219°
2026-05-06 02:36 -10.35994 -37.06697 36058 ft 432 kts 219°
2026-05-06 02:36 -10.40927 -37.10236 36053 ft 433 kts 219°
2026-05-06 02:37 -10.45839 -37.13762 36055 ft 433 kts 219°
2026-05-06 02:37 -10.50759 -37.17295 36061 ft 431 kts 219°
2026-05-06 02:38 -10.55677 -37.20828 36057 ft 432 kts 219°
2026-05-06 02:38 -10.60579 -37.24350 36055 ft 432 kts 219°
2026-05-06 02:39 -10.65512 -37.27895 36052 ft 432 kts 219°
2026-05-06 02:39 -10.70419 -37.31423 36057 ft 430 kts 219°
2026-05-06 02:40 -10.75288 -37.34925 36053 ft 429 kts 219°
2026-05-06 02:40 -10.80206 -37.38466 36056 ft 430 kts 219°
2026-05-06 02:41 -10.85079 -37.41975 36061 ft 429 kts 219°
2026-05-06 02:41 -10.89939 -37.45476 36065 ft 428 kts 219°
2026-05-06 02:42 -10.94822 -37.48994 36063 ft 429 kts 219°
2026-05-06 02:42 -10.99685 -37.52501 36064 ft 428 kts 219°
2026-05-06 02:43 -11.04545 -37.56004 36069 ft 427 kts 219°
2026-05-06 02:43 -11.09407 -37.59512 36070 ft 427 kts 219°
2026-05-06 02:44 -11.14287 -37.63033 36070 ft 427 kts 219°
2026-05-06 02:44 -11.18282 -37.65917 36066 ft 428 kts 219°
2026-05-06 02:45 -11.24005 -37.70051 36063 ft 426 kts 219°
2026-05-06 02:45 -11.28566 -37.73347 36066 ft 426 kts 219°
2026-05-06 02:46 -11.33408 -37.76849 36072 ft 427 kts 219°
2026-05-06 02:46 -11.38251 -37.80351 36072 ft 425 kts 219°
2026-05-06 02:47 -11.43093 -37.83853 36073 ft 424 kts 219°
2026-05-06 02:47 -11.47907 -37.87339 36071 ft 426 kts 219°
2026-05-06 02:48 -11.52736 -37.90851 36068 ft 425 kts 219°
2026-05-06 02:48 -11.57566 -37.94371 36069 ft 424 kts 219°
2026-05-06 02:49 -11.62365 -37.97869 36071 ft 424 kts 219°
2026-05-06 02:49 -11.67150 -38.01356 36065 ft 423 kts 220°
2026-05-06 02:50 -11.71950 -38.04857 36072 ft 423 kts 219°
2026-05-06 02:50 -11.76736 -38.08349 36070 ft 423 kts 219°
2026-05-06 02:51 -11.81563 -38.11872 36067 ft 423 kts 219°
2026-05-06 02:51 -11.86356 -38.15372 36066 ft 423 kts 219°
2026-05-06 02:52 -11.91124 -38.18854 36066 ft 422 kts 220°
2026-05-06 02:52 -11.95932 -38.22369 36068 ft 423 kts 220°
2026-05-06 02:53 -12.00693 -38.25849 36066 ft 421 kts 219°
2026-05-06 02:53 -12.05458 -38.29334 36069 ft 422 kts 220°
2026-05-06 02:54 -12.10258 -38.32846 36071 ft 422 kts 219°
2026-05-06 02:54 -12.15015 -38.36328 36070 ft 421 kts 220°
2026-05-06 02:55 -12.19806 -38.39838 36074 ft 422 kts 219°
2026-05-06 02:55 -12.24543 -38.43309 36073 ft 420 kts 219°
2026-05-06 02:56 -12.29301 -38.46797 36075 ft 421 kts 220°
2026-05-06 02:56 -12.34075 -38.50301 36071 ft 422 kts 219°
2026-05-06 02:57 -12.38853 -38.53805 36072 ft 421 kts 219°
2026-05-06 02:57 -12.43602 -38.57290 36069 ft 420 kts 219°
2026-05-06 02:58 -12.48382 -38.60802 36071 ft 421 kts 219°
2026-05-06 02:58 -12.53160 -38.64312 36067 ft 421 kts 219°
2026-05-06 02:59 -12.56348 -38.66656 36066 ft 421 kts 219°
2026-05-06 02:59 -12.60821 -38.69944 36068 ft 421 kts 219°
2026-05-06 03:00 -12.65598 -38.73457 36065 ft 419 kts 219°
2026-05-06 03:00 -12.70350 -38.76954 36068 ft 420 kts 219°
2026-05-06 03:01 -12.75107 -38.80458 36072 ft 419 kts 219°
2026-05-06 03:01 -12.79830 -38.83942 36071 ft 420 kts 219°
2026-05-06 03:02 -12.84578 -38.87448 36075 ft 420 kts 219°
2026-05-06 03:02 -12.89353 -38.90978 36076 ft 420 kts 219°
2026-05-06 03:03 -12.94101 -38.94495 36089 ft 418 kts 219°
2026-05-06 03:03 -12.98841 -38.98008 36098 ft 418 kts 219°
2026-05-06 03:04 -13.03570 -39.01516 36098 ft 419 kts 219°
2026-05-06 03:04 -13.08317 -39.05039 36100 ft 418 kts 219°
2026-05-06 03:05 -13.13047 -39.08549 36100 ft 419 kts 219°
2026-05-06 03:05 -13.16785 -39.11324 36103 ft 418 kts 219°
2026-05-06 03:06 -13.21499 -39.14824 36106 ft 419 kts 219°
2026-05-06 03:06 -13.26249 -39.18354 36108 ft 418 kts 219°
2026-05-06 03:07 -13.30972 -39.21865 36110 ft 418 kts 219°
2026-05-06 03:07 -13.35681 -39.25368 36111 ft 419 kts 219°
2026-05-06 03:08 -13.40410 -39.28888 36117 ft 418 kts 219°
2026-05-06 03:08 -13.45140 -39.32409 36117 ft 419 kts 219°
2026-05-06 03:09 -13.49869 -39.35941 36120 ft 417 kts 219°
2026-05-06 03:09 -13.54570 -39.39463 36122 ft 418 kts 219°
2026-05-06 03:10 -13.59286 -39.43001 36121 ft 418 kts 219°
2026-05-06 03:10 -13.64010 -39.46544 36120 ft 418 kts 219°
2026-05-06 03:11 -13.68725 -39.50080 36123 ft 417 kts 219°
2026-05-06 03:11 -13.73391 -39.53582 36133 ft 417 kts 219°
2026-05-06 03:12 -13.78100 -39.57117 36137 ft 417 kts 219°
2026-05-06 03:12 -13.82809 -39.60656 36137 ft 417 kts 219°
2026-05-06 03:13 -13.87483 -39.64168 36145 ft 417 kts 219°
2026-05-06 03:13 -13.91405 -39.67117 36142 ft 415 kts 219°
2026-05-06 03:14 -13.96552 -39.70990 36148 ft 416 kts 219°
2026-05-06 03:14 -14.01229 -39.74509 36145 ft 416 kts 219°
2026-05-06 03:15 -14.05917 -39.78041 36148 ft 416 kts 219°
2026-05-06 03:15 -14.10638 -39.81599 36152 ft 416 kts 219°
2026-05-06 03:16 -14.15301 -39.85114 36157 ft 414 kts 219°
2026-05-06 03:16 -14.19983 -39.88645 36163 ft 415 kts 219°
2026-05-06 03:17 -14.24637 -39.92157 36169 ft 414 kts 219°
2026-05-06 03:17 -14.29289 -39.95671 36173 ft 414 kts 219°
2026-05-06 03:18 -14.33932 -39.99179 36174 ft 414 kts 219°
2026-05-06 03:18 -14.38606 -40.02712 36175 ft 415 kts 219°
2026-05-06 03:19 -14.43255 -40.06226 36172 ft 414 kts 219°
2026-05-06 03:19 -14.47919 -40.09756 36176 ft 414 kts 219°
2026-05-06 03:20 -14.54863 -40.15013 36176 ft 414 kts 219°
2026-05-06 03:20 -14.59520 -40.18541 36177 ft 412 kts 219°
2026-05-06 03:21 -14.64166 -40.22064 36175 ft 413 kts 219°
2026-05-06 03:21 -14.68792 -40.25573 36175 ft 413 kts 219°
2026-05-06 03:22 -14.73416 -40.29083 36181 ft 412 kts 219°
2026-05-06 03:22 -14.78079 -40.32625 36183 ft 413 kts 219°
2026-05-06 03:23 -14.82699 -40.36135 36191 ft 412 kts 219°
2026-05-06 03:23 -14.87295 -40.39628 36192 ft 411 kts 219°
2026-05-06 03:24 -14.91916 -40.43144 36185 ft 412 kts 219°
2026-05-06 03:24 -14.96551 -40.46672 36183 ft 411 kts 219°
2026-05-06 03:25 -15.01161 -40.50183 36180 ft 411 kts 219°
2026-05-06 03:25 -15.05766 -40.53692 36179 ft 411 kts 219°
2026-05-06 03:26 -15.10370 -40.57203 36182 ft 410 kts 219°
2026-05-06 03:26 -15.14964 -40.60707 36183 ft 410 kts 219°
2026-05-06 03:27 -15.19581 -40.64230 36179 ft 410 kts 219°
2026-05-06 03:27 -15.22655 -40.66577 36181 ft 409 kts 219°
2026-05-06 03:28 -15.28782 -40.71258 36182 ft 409 kts 219°
2026-05-06 03:28 -15.33371 -40.74766 36187 ft 408 kts 219°
2026-05-06 03:29 -15.37943 -40.78262 36190 ft 408 kts 219°
2026-05-06 03:29 -15.42532 -40.81774 36197 ft 408 kts 219°
2026-05-06 03:30 -15.47119 -40.85287 36203 ft 409 kts 219°
2026-05-06 03:30 -15.51706 -40.88803 36200 ft 409 kts 218°
2026-05-06 03:31 -15.56264 -40.92297 36200 ft 408 kts 218°
2026-05-06 03:31 -15.60849 -40.95813 36203 ft 407 kts 218°
2026-05-06 03:32 -15.65381 -40.99292 36201 ft 406 kts 218°
2026-05-06 03:32 -15.69946 -41.02797 36205 ft 406 kts 218°
2026-05-06 03:33 -15.74520 -41.06311 36208 ft 406 kts 218°
2026-05-06 03:33 -15.79072 -41.09811 36213 ft 407 kts 218°
2026-05-06 03:34 -15.83627 -41.13314 36212 ft 406 kts 218°
2026-05-06 03:34 -15.88158 -41.16801 36214 ft 407 kts 218°
2026-05-06 03:35 -15.92730 -41.20323 36208 ft 407 kts 218°
2026-05-06 03:35 -15.97273 -41.23822 36211 ft 406 kts 218°
2026-05-06 03:36 -16.01834 -41.27339 36206 ft 406 kts 218°
2026-05-06 03:36 -16.06366 -41.30833 36205 ft 405 kts 218°
2026-05-06 03:37 -16.10930 -41.34355 36205 ft 406 kts 218°
2026-05-06 03:37 -16.12459 -41.35535 36205 ft 406 kts 218°
2026-05-06 03:38 -16.20035 -41.41388 36205 ft 405 kts 218°
2026-05-06 03:38 -16.24543 -41.44874 36203 ft 405 kts 218°
2026-05-06 03:39 -16.29084 -41.48386 36201 ft 404 kts 218°
2026-05-06 03:39 -16.33610 -41.51890 36194 ft 404 kts 218°
2026-05-06 03:40 -16.38134 -41.55393 36193 ft 404 kts 218°
2026-05-06 03:40 -16.42669 -41.58906 36190 ft 404 kts 218°
2026-05-06 03:41 -16.47194 -41.62415 36184 ft 405 kts 218°
2026-05-06 03:41 -16.51726 -41.65931 36183 ft 405 kts 218°
2026-05-06 03:42 -16.56264 -41.69453 36186 ft 405 kts 218°
2026-05-06 03:42 -16.60791 -41.72969 36190 ft 404 kts 218°
2026-05-06 03:43 -16.65303 -41.76475 36193 ft 404 kts 218°
2026-05-06 03:43 -16.69826 -41.79993 36195 ft 404 kts 218°
2026-05-06 03:44 -16.74346 -41.83510 36197 ft 404 kts 218°
2026-05-06 03:44 -16.78866 -41.87029 36195 ft 405 kts 218°
2026-05-06 03:45 -16.83395 -41.90557 36196 ft 404 kts 218°
2026-05-06 03:45 -16.87907 -41.94075 36196 ft 404 kts 218°
2026-05-06 03:46 -16.92437 -41.97609 36198 ft 404 kts 218°
2026-05-06 03:46 -16.96937 -42.01123 36203 ft 404 kts 218°
2026-05-06 03:47 -17.01443 -42.04644 36200 ft 403 kts 218°
2026-05-06 03:47 -17.05917 -42.08142 36206 ft 404 kts 218°
2026-05-06 03:48 -17.10417 -42.11663 36208 ft 403 kts 218°
2026-05-06 03:48 -17.14913 -42.15184 36210 ft 403 kts 218°
2026-05-06 03:49 -17.17682 -42.17353 36211 ft 402 kts 218°
2026-05-06 03:49 -17.22629 -42.21231 36214 ft 403 kts 218°
2026-05-06 03:50 -17.27117 -42.24751 36217 ft 403 kts 217°
2026-05-06 03:50 -17.31606 -42.28274 36219 ft 402 kts 217°
2026-05-06 03:51 -17.36098 -42.31800 36224 ft 402 kts 217°
2026-05-06 03:51 -17.40565 -42.35310 36226 ft 402 kts 218°
2026-05-06 03:52 -17.45065 -42.38847 36230 ft 401 kts 217°
2026-05-06 03:52 -17.49537 -42.42365 36238 ft 401 kts 217°
2026-05-06 03:53 -17.53978 -42.45861 36240 ft 401 kts 217°
2026-05-06 03:53 -17.58440 -42.49375 36245 ft 401 kts 217°
2026-05-06 03:54 -17.62923 -42.52908 36251 ft 401 kts 217°
2026-05-06 03:54 -17.67382 -42.56424 36254 ft 401 kts 217°
2026-05-06 03:55 -17.71864 -42.59961 36255 ft 400 kts 217°
2026-05-06 03:55 -17.76316 -42.63477 36260 ft 401 kts 217°
2026-05-06 03:56 -17.80785 -42.67008 36265 ft 400 kts 217°
2026-05-06 03:56 -17.85249 -42.70538 36273 ft 400 kts 217°
2026-05-06 03:57 -17.89676 -42.74040 36287 ft 399 kts 217°
2026-05-06 03:57 -17.94130 -42.77565 36301 ft 399 kts 217°
2026-05-06 03:58 -17.98559 -42.81073 36305 ft 399 kts 217°
2026-05-06 03:58 -18.02996 -42.84591 36295 ft 399 kts 217°
2026-05-06 03:59 -18.07436 -42.88114 36283 ft 398 kts 217°
2026-05-06 03:59 -18.11879 -42.91640 36271 ft 398 kts 217°
2026-05-06 04:00 -18.16299 -42.95151 36264 ft 397 kts 217°
2026-05-06 04:00 -18.19188 -42.97447 36261 ft 398 kts 217°
2026-05-06 04:01 -18.23627 -43.00977 36257 ft 397 kts 217°
2026-05-06 04:01 -18.28044 -43.04491 36259 ft 398 kts 217°
2026-05-06 04:02 -18.32468 -43.08012 36264 ft 398 kts 217°
2026-05-06 04:02 -18.36867 -43.11515 36265 ft 396 kts 217°
2026-05-06 04:03 -18.41297 -43.15059 36267 ft 397 kts 217°
2026-05-06 04:03 -18.45688 -43.18615 36265 ft 397 kts 217°
2026-05-06 04:04 -18.50079 -43.22180 36262 ft 396 kts 217°
2026-05-06 04:04 -18.54433 -43.25713 36256 ft 395 kts 217°
2026-05-06 04:05 -18.58798 -43.29254 36260 ft 395 kts 217°
2026-05-06 04:05 -18.63189 -43.32818 36264 ft 397 kts 217°
2026-05-06 04:06 -18.67581 -43.36335 36260 ft 395 kts 216°
2026-05-06 04:06 -18.72013 -43.39843 36261 ft 394 kts 216°
2026-05-06 04:07 -18.76401 -43.43322 36261 ft 394 kts 216°
2026-05-06 04:07 -18.80793 -43.46810 36264 ft 394 kts 216°
2026-05-06 04:08 -18.85196 -43.50315 36255 ft 393 kts 216°
2026-05-06 04:08 -18.89548 -43.53769 36261 ft 394 kts 216°
2026-05-06 04:09 -18.93996 -43.57196 36267 ft 393 kts 215°
2026-05-06 04:09 -18.98427 -43.60576 36271 ft 392 kts 215°
2026-05-06 04:10 -19.02845 -43.63954 36273 ft 391 kts 215°
2026-05-06 04:10 -19.07278 -43.67357 36279 ft 392 kts 216°
2026-05-06 04:11 -19.10974 -43.70197 36277 ft 391 kts 216°
2026-05-06 04:11 -19.15738 -43.73862 36272 ft 390 kts 216°
2026-05-06 04:12 -19.19397 -43.76679 36265 ft 390 kts 216°
2026-05-06 04:12 -19.24541 -43.80642 36249 ft 389 kts 216°
2026-05-06 04:13 -19.28935 -43.84031 36246 ft 389 kts 216°
2026-05-06 04:13 -19.33322 -43.87417 36246 ft 390 kts 216°
2026-05-06 04:14 -19.37713 -43.90809 36244 ft 390 kts 216°
2026-05-06 04:14 -19.42095 -43.94196 36251 ft 389 kts 216°
2026-05-06 04:15 -19.46506 -43.97606 36250 ft 388 kts 216°
2026-05-06 04:15 -19.50856 -44.00972 36256 ft 389 kts 216°
2026-05-06 04:16 -19.55253 -44.04377 36263 ft 388 kts 215°
2026-05-06 04:16 -19.59626 -44.07748 36267 ft 388 kts 215°
2026-05-06 04:17 -19.64011 -44.11109 36271 ft 388 kts 215°
2026-05-06 04:17 -19.68367 -44.14450 36271 ft 387 kts 215°
2026-05-06 04:18 -19.72730 -44.17804 36268 ft 386 kts 215°
2026-05-06 04:18 -19.77112 -44.21191 36270 ft 387 kts 216°
2026-05-06 04:19 -19.81469 -44.24564 36266 ft 385 kts 215°
2026-05-06 04:19 -19.85803 -44.27919 36262 ft 387 kts 215°
2026-05-06 04:20 -19.90155 -44.31294 36263 ft 384 kts 215°
2026-05-06 04:20 -19.94469 -44.34638 36260 ft 384 kts 215°
2026-05-06 04:21 -19.98791 -44.37987 36261 ft 383 kts 215°
2026-05-06 04:21 -20.03151 -44.41372 36263 ft 385 kts 215°
2026-05-06 04:22 -20.07456 -44.44716 36263 ft 382 kts 215°
2026-05-06 04:23 -20.13913 -44.49737 36266 ft 383 kts 216°
2026-05-06 04:23 -20.17938 -44.52866 36265 ft 380 kts 215°
2026-05-06 04:24 -20.22242 -44.56213 36265 ft 380 kts 215°
2026-05-06 04:24 -20.26526 -44.59547 36263 ft 381 kts 215°
2026-05-06 04:25 -20.30832 -44.62903 36261 ft 381 kts 215°
2026-05-06 04:25 -20.34368 -44.65660 36261 ft 380 kts 216°
2026-05-06 04:26 -20.39111 -44.69359 36262 ft 379 kts 215°
2026-05-06 04:26 -20.43519 -44.72799 36263 ft 380 kts 216°
2026-05-06 04:27 -20.47817 -44.76156 36263 ft 378 kts 216°
2026-05-06 04:27 -20.52073 -44.79478 36262 ft 379 kts 216°
2026-05-06 04:28 -20.56331 -44.82805 36259 ft 378 kts 216°
2026-05-06 04:28 -20.60571 -44.86117 36261 ft 378 kts 216°
2026-05-06 04:29 -20.64830 -44.89448 36260 ft 377 kts 216°
2026-05-06 04:29 -20.69084 -44.92778 36263 ft 378 kts 215°
2026-05-06 04:30 -20.73320 -44.96093 36261 ft 378 kts 215°
2026-05-06 04:30 -20.77572 -44.99429 36261 ft 376 kts 215°
2026-05-06 04:31 -20.81797 -45.02754 36259 ft 376 kts 215°
2026-05-06 04:31 -20.85985 -45.06050 36261 ft 375 kts 215°
2026-05-06 04:32 -20.90237 -45.09401 36258 ft 375 kts 215°
2026-05-06 04:32 -20.94444 -45.12712 36261 ft 376 kts 216°
2026-05-06 04:33 -20.98656 -45.16027 36258 ft 375 kts 215°
2026-05-06 04:33 -21.02868 -45.19347 36261 ft 376 kts 215°
2026-05-06 04:34 -21.07084 -45.22674 36259 ft 375 kts 216°
2026-05-06 04:34 -21.11291 -45.25996 36266 ft 376 kts 216°
2026-05-06 04:35 -21.14475 -45.28511 36263 ft 374 kts 216°
2026-05-06 04:35 -21.18331 -45.31560 36265 ft 377 kts 216°
2026-05-06 04:36 -21.22266 -45.34674 36267 ft 374 kts 216°
2026-05-06 04:36 -21.27859 -45.39101 36270 ft 374 kts 216°
2026-05-06 04:37 -21.32047 -45.42420 36271 ft 375 kts 216°
2026-05-06 04:37 -21.36260 -45.45760 36268 ft 374 kts 215°
2026-05-06 04:38 -21.40459 -45.49092 36270 ft 373 kts 216°
2026-05-06 04:38 -21.44640 -45.52413 36270 ft 374 kts 216°
2026-05-06 04:39 -21.48865 -45.55771 36268 ft 374 kts 216°
2026-05-06 04:39 -21.53047 -45.59079 36270 ft 375 kts 215°
2026-05-06 04:40 -21.57262 -45.62380 36266 ft 374 kts 215°
2026-05-06 04:40 -21.61428 -45.65646 36269 ft 373 kts 215°
2026-05-06 04:41 -21.63537 -45.67300 36267 ft 374 kts 216°
2026-05-06 04:41 -21.69849 -45.72263 36271 ft 374 kts 216°
2026-05-06 04:42 -21.73947 -45.75489 36271 ft 375 kts 216°
2026-05-06 04:42 -21.76149 -45.77224 36029 ft 375 kts 216°
2026-05-06 04:42 -21.78260 -45.78889 35526 ft 372 kts 216°
2026-05-06 04:42 -21.80348 -45.80535 34934 ft 370 kts 216°
2026-05-06 04:43 -21.82407 -45.82161 34275 ft 370 kts 216°
2026-05-06 04:43 -21.84476 -45.83793 33597 ft 372 kts 216°
2026-05-06 04:43 -21.86571 -45.85445 32940 ft 374 kts 216°
2026-05-06 04:43 -21.88698 -45.87125 32248 ft 375 kts 216°
2026-05-06 04:44 -21.90786 -45.88774 31735 ft 377 kts 216°
2026-05-06 04:44 -21.92948 -45.90483 31296 ft 394 kts 216°
2026-05-06 04:44 -21.95209 -45.92269 30768 ft 410 kts 216°
2026-05-06 04:44 -21.97538 -45.94108 30241 ft 410 kts 215°
2026-05-06 04:45 -21.99822 -45.95914 29726 ft 405 kts 216°
2026-05-06 04:45 -22.02073 -45.97695 29223 ft 400 kts 216°
2026-05-06 04:45 -22.04294 -45.99453 28713 ft 395 kts 216°
2026-05-06 04:45 -22.06495 -46.01198 28219 ft 390 kts 215°
2026-05-06 04:46 -22.08658 -46.02913 27720 ft 386 kts 216°
2026-05-06 04:46 -22.10830 -46.04636 27218 ft 382 kts 216°
2026-05-06 04:46 -22.12972 -46.06335 26696 ft 379 kts 216°
2026-05-06 04:47 -22.17199 -46.09690 25715 ft 371 kts 216°
2026-05-06 04:47 -22.19165 -46.11252 25238 ft 369 kts 216°
2026-05-06 04:47 -22.21218 -46.12884 24743 ft 366 kts 216°
2026-05-06 04:47 -22.21913 -46.13437 24581 ft 365 kts 216°
2026-05-06 04:48 -22.25020 -46.15907 23878 ft 372 kts 216°
2026-05-06 04:48 -22.27139 -46.17591 23365 ft 384 kts 216°
2026-05-06 04:48 -22.29345 -46.19284 22842 ft 383 kts 213°
2026-05-06 04:48 -22.31635 -46.20715 22377 ft 378 kts 204°
2026-05-06 04:49 -22.34082 -46.21625 22182 ft 370 kts 194°
2026-05-06 04:49 -22.36598 -46.22189 21807 ft 365 kts 190°
2026-05-06 04:49 -22.39112 -46.22602 21339 ft 362 kts 188°
2026-05-06 04:49 -22.41601 -46.22959 20853 ft 359 kts 187°
2026-05-06 04:50 -22.44075 -46.23304 20398 ft 356 kts 188°
2026-05-06 04:50 -22.46530 -46.23651 19916 ft 354 kts 188°
2026-05-06 04:50 -22.48943 -46.24004 19461 ft 352 kts 188°
2026-05-06 04:50 -22.51367 -46.24366 18974 ft 350 kts 188°
2026-05-06 04:51 -22.53771 -46.24731 18497 ft 348 kts 188°
2026-05-06 04:51 -22.56186 -46.25102 18350 ft 351 kts 188°
2026-05-06 04:51 -22.58645 -46.25482 18334 ft 365 kts 188°
2026-05-06 04:51 -22.61183 -46.25876 18333 ft 366 kts 188°
2026-05-06 04:52 -22.63722 -46.26270 18330 ft 364 kts 188°
2026-05-06 04:52 -22.66212 -46.26657 18331 ft 365 kts 188°
2026-05-06 04:52 -22.68722 -46.27047 18194 ft 361 kts 188°
2026-05-06 04:52 -22.71225 -46.27436 17762 ft 357 kts 188°
2026-05-06 04:53 -22.73662 -46.27816 17287 ft 355 kts 188°
2026-05-06 04:53 -22.76100 -46.28257 16773 ft 354 kts 192°
2026-05-06 04:53 -22.78462 -46.28979 16368 ft 350 kts 200°
2026-05-06 04:53 -22.80665 -46.30066 16088 ft 343 kts 207°
2026-05-06 04:54 -22.82729 -46.31337 15726 ft 337 kts 212°
2026-05-06 04:54 -22.84438 -46.33000 15518 ft 328 kts 232°
2026-05-06 04:54 -22.85529 -46.35107 15355 ft 319 kts 249°
2026-05-06 04:54 -22.85976 -46.37452 15295 ft 318 kts 268°
2026-05-06 04:55 -22.85669 -46.39848 15290 ft 325 kts 287°
2026-05-06 04:55 -22.84832 -46.42104 15296 ft 325 kts 291°
2026-05-06 04:55 -22.84042 -46.44399 15292 ft 323 kts 285°
2026-05-06 04:55 -22.83536 -46.46767 15293 ft 322 kts 279°
2026-05-06 04:56 -22.83194 -46.49165 15291 ft 323 kts 276°
2026-05-06 04:56 -22.82899 -46.51576 15290 ft 322 kts 275°
2026-05-06 04:56 -22.82750 -46.53987 15285 ft 322 kts 269°
2026-05-06 04:56 -22.82810 -46.56416 15286 ft 321 kts 265°
2026-05-06 04:57 -22.82974 -46.58810 15280 ft 321 kts 263°
2026-05-06 04:57 -22.83190 -46.61227 15278 ft 321 kts 261°
2026-05-06 04:57 -22.83603 -46.63608 15270 ft 321 kts 255°
2026-05-06 04:57 -22.84208 -46.65952 15267 ft 321 kts 251°
2026-05-06 04:58 -22.84664 -46.67506 15263 ft 321 kts 250°
2026-05-06 04:58 -22.85615 -46.70544 15261 ft 320 kts 248°
2026-05-06 04:58 -22.86532 -46.72735 15259 ft 319 kts 241°
2026-05-06 04:58 -22.87566 -46.74719 15259 ft 318 kts 237°
2026-05-06 04:59 -22.88987 -46.76545 15251 ft 316 kts 215°
2026-05-06 04:59 -22.90511 -46.77418 15257 ft 314 kts 197°
2026-05-06 04:59 -22.91955 -46.77728 15256 ft 313 kts 183°
2026-05-06 04:59 -22.93918 -46.77589 15191 ft 309 kts 168°
2026-05-06 05:00 -22.95939 -46.76928 14882 ft 304 kts 155°
2026-05-06 05:00 -22.97737 -46.75721 14511 ft 302 kts 142°
2026-05-06 05:00 -22.99348 -46.74273 14114 ft 301 kts 139°
2026-05-06 05:00 -23.00914 -46.72787 13707 ft 300 kts 139°
2026-05-06 05:01 -23.02490 -46.71313 13316 ft 298 kts 139°
2026-05-06 05:01 -23.04083 -46.69864 12936 ft 296 kts 140°
2026-05-06 05:01 -23.05664 -46.68453 12545 ft 295 kts 140°
2026-05-06 05:01 -23.07263 -46.67035 12160 ft 293 kts 140°
2026-05-06 05:02 -23.08826 -46.65653 11780 ft 292 kts 140°
2026-05-06 05:02 -23.10350 -46.64303 11414 ft 290 kts 140°
2026-05-06 05:02 -23.11934 -46.62899 11017 ft 289 kts 140°
2026-05-06 05:03 -23.13258 -46.61724 10697 ft 288 kts 140°
2026-05-06 05:03 -23.14790 -46.60365 10305 ft 288 kts 140°
2026-05-06 05:03 -23.16361 -46.58970 9840 ft 288 kts 139°
2026-05-06 05:03 -23.17874 -46.57631 9559 ft 277 kts 140°
2026-05-06 05:04 -23.19457 -46.56470 9372 ft 270 kts 153°
2026-05-06 05:04 -23.21248 -46.56004 9263 ft 263 kts 181°
2026-05-06 05:04 -23.23028 -46.56497 9002 ft 263 kts 207°
2026-05-06 05:04 -23.24567 -46.57575 8680 ft 263 kts 213°
2026-05-06 05:05 -23.26079 -46.58694 8219 ft 265 kts 212°
2026-05-06 05:05 -23.27617 -46.59789 7986 ft 259 kts 211°
2026-05-06 05:05 -23.29114 -46.60845 7738 ft 256 kts 211°
2026-05-06 05:05 -23.30604 -46.61898 7421 ft 255 kts 211°
2026-05-06 05:06 -23.31999 -46.62888 7129 ft 254 kts 211°
2026-05-06 05:06 -23.33476 -46.63940 6815 ft 253 kts 211°
2026-05-06 05:06 -23.34957 -46.64997 6501 ft 252 kts 211°
2026-05-06 05:06 -23.36425 -46.66045 6296 ft 247 kts 211°
2026-05-06 05:07 -23.37838 -46.67051 6216 ft 235 kts 211°
2026-05-06 05:07 -23.39172 -46.68004 6155 ft 224 kts 211°
2026-05-06 05:07 -23.40455 -46.68898 6094 ft 214 kts 207°
2026-05-06 05:07 -23.41837 -46.69475 6019 ft 212 kts 182°
2026-05-06 05:08 -23.43245 -46.69140 5909 ft 209 kts 146°
2026-05-06 05:08 -23.44229 -46.68080 5731 ft 205 kts 122°
2026-05-06 05:08 -23.44992 -46.66793 5547 ft 203 kts 122°
2026-05-06 05:08 -23.45788 -46.65517 5376 ft 203 kts 123°
2026-05-06 05:09 -23.46595 -46.64253 5216 ft 202 kts 123°
2026-05-06 05:09 -23.47305 -46.62967 5042 ft 192 kts 111°
2026-05-06 05:09 -23.47450 -46.61590 4829 ft 185 kts 77°
2026-05-06 05:09 -23.47046 -46.60277 4587 ft 181 kts 70°
2026-05-06 05:10 -23.46650 -46.58978 4359 ft 179 kts 74°
2026-05-06 05:10 -23.46317 -46.57684 4140 ft 178 kts 75°
2026-05-06 05:10 -23.45975 -46.56404 3926 ft 175 kts 74°
2026-05-06 05:10 -23.45638 -46.55175 3636 ft 164 kts 74°
2026-05-06 05:11 -23.45320 -46.53997 3458 ft 162 kts 74°
2026-05-06 05:11 -23.45000 -46.52815 3240 ft 162 kts 74°
2026-05-06 05:11 -23.44680 -46.51638 3027 ft 161 kts 73°
2026-05-06 05:11 -23.44361 -46.50481 2827 ft 161 kts 74°
2026-05-06 05:12 -23.44041 -46.49319 2610 ft 160 kts 73°
2026-05-06 05:12 -23.43732 -46.48161 2473 ft 153 kts 73°
2026-05-06 05:12 -23.43477 -46.47210 2471 ft 104 kts 74°
2026-05-06 05:12 -23.43316 -46.46610 2457 ft 62 kts 74°
2026-05-06 05:13 -23.43184 -46.46331 2452 ft 35 kts 45°
2026-05-06 05:13 -23.43038 -46.46179 2451 ft 23 kts 43°
2026-05-06 05:13 -23.42891 -46.46158 2451 ft 22 kts 343°
2026-05-06 05:13 -23.42743 -46.46204 2450 ft 21 kts 345°
2026-05-06 05:14 -23.42643 -46.46238 2450 ft 13 kts 330°
2026-05-06 05:14 -23.42627 -46.46328 2450 ft 13 kts 256°
2026-05-06 05:14 -23.42651 -46.46425 2449 ft 13 kts 254°
2026-05-06 05:14 -23.42678 -46.46521 2449 ft 13 kts 252°
2026-05-06 05:15 -23.42710 -46.46634 2448 ft 17 kts 254°
2026-05-06 05:15 -23.42745 -46.46776 2447 ft 21 kts 255°
2026-05-06 05:15 -23.42791 -46.46941 2448 ft 23 kts 253°
2026-05-06 05:15 -23.42833 -46.47092 2448 ft 17 kts 253°
2026-05-06 05:16 -23.42871 -46.47228 2448 ft 19 kts 254°
2026-05-06 05:16 -23.42897 -46.47326 2449 ft 19 kts 253°